Weather History for Zadar, Croatia

Change the Weather History Date:

Monday, November 19, 2012

  Actual Average Record
Temperature  
Mean Temperature 58 °F -  
Max Temperature 65 °F - - ()
Min Temperature 51 °F - - ()
Degree Days  
Heating Degree Days 7    
Growing Degree Days 8 (Base 50)    
Moisture  
Dew Point 48 °F    
Average Humidity 68    
Maximum Humidity 94    
Minimum Humidity 44    
Precipitation  
Precipitation 0.00 in - - ()
Sea Level Pressure  
Sea Level Pressure 29.93 in    
Wind  
Wind Speed 6 mph ()    
Max Wind Speed 12 mph    
Max Gust Speed -    
Visibility 7.4 miles    
Events Rain    
T = Trace of Precipitation, MM = Missing Value Source: Averaged Metar Reports

Daily Weather History Graph

Daily Weather History Graph

Search for Another Location

Airport:

Trip Planner

Search our weather history database for the weather conditions in past years. The results will help you decide how hot, cold, wet, or windy it might be!

Date:

Astronomy

Nov. 19, 2012 Rise Set
Actual Time 6:59 AM CET 4:28 PM CET
Civil Twilight 6:27 AM CET 4:59 PM CET
Nautical Twilight 5:52 AM CET 5:35 PM CET
Astronomical Twilight 5:18 AM CET 6:09 PM CET
Moon 11:48 AM CET (11/19) 10:41 PM CET (11/19)
Length of Visible Light 10h 32m
Length of Day
9h 29m
Waxing Crescent, 38% of the Moon is Illuminated
Nov 19
Waxing Crescent
Nov 20
First Quarter
Nov 28
Full
Dec 6
Last Quarter
Dec 13
New

Hourly Weather History & Observations

Time (CET) Temp. Dew Point Humidity Pressure Visibility Wind Dir Wind Speed Gust Speed Precip Events Conditions
12:00 AM 55.4 °F 50.0 °F 82% 29.95 in 6.2 mi ESE 5.8 mph - N/A   Partly Cloudy
12:30 AM 57.2 °F 50.0 °F 77% 29.95 in 6.2 mi East 8.1 mph - N/A   Partly Cloudy
1:00 AM 57 °F 49 °F 66% 29.96 in 12 mi East 6.7 mph - -   Scattered Clouds
1:00 AM 57.2 °F 48.2 °F 72% 29.95 in 6.2 mi East 6.9 mph - N/A   Partly Cloudy
1:30 AM 55.4 °F 50.0 °F 82% 29.95 in 6.2 mi ESE 4.6 mph - N/A   Partly Cloudy
2:00 AM 55.4 °F 50.0 °F 82% 29.95 in 6.2 mi Variable 1.2 mph - N/A   Partly Cloudy
2:30 AM 55.4 °F 50.0 °F 82% 29.95 in 6.2 mi SE 4.6 mph - N/A   Partly Cloudy
3:00 AM 53.6 °F 48.2 °F 82% 29.95 in 6.2 mi East 3.5 mph - N/A   Partly Cloudy
3:30 AM 53.6 °F 50.0 °F 88% 29.95 in 6.2 mi Variable 2.3 mph - N/A   Partly Cloudy
4:00 AM 53 °F 49 °F 81% 29.95 in 9 mi SE 4.5 mph - -  
4:00 AM 53.6 °F 50.0 °F 88% 29.92 in 6.2 mi SE 3.5 mph - N/A   Partly Cloudy
4:30 AM 53.6 °F 48.2 °F 82% 29.92 in 6.2 mi ESE 4.6 mph - N/A   Partly Cloudy
5:00 AM 53.6 °F 50.0 °F 88% 29.92 in 6.2 mi SE 5.8 mph - N/A   Partly Cloudy
5:30 AM 53.6 °F 50.0 °F 88% 29.92 in 6.2 mi SSE 3.5 mph - N/A Rain Light Rain
6:00 AM 53.6 °F 50.0 °F 88% 29.92 in 6.2 mi SSE 3.5 mph - N/A Rain Light Rain
6:30 AM 51.8 °F 50.0 °F 94% 29.92 in 6.2 mi East 3.5 mph - N/A   Mostly Cloudy
7:00 AM 52 °F 50 °F 92% 29.94 in 9 mi SE 4.5 mph - - Rain Light Rain
7:00 AM 51.8 °F 50.0 °F 94% 29.92 in 6.2 mi SE 3.5 mph - N/A   Partly Cloudy
7:30 AM 53.6 °F 48.2 °F 82% 29.92 in 6.2 mi East 5.8 mph - N/A   Partly Cloudy
8:00 AM 55.4 °F 48.2 °F 77% 29.95 in 6.2 mi SSE 4.6 mph - N/A   Partly Cloudy
8:30 AM 57.2 °F 48.2 °F 72% 29.95 in 6.2 mi East 6.9 mph - N/A   Partly Cloudy
9:00 AM 57.2 °F 48.2 °F 72% 29.95 in 6.2 mi SE 5.8 mph - N/A   Scattered Clouds
9:30 AM 59.0 °F 50.0 °F 72% 29.95 in 6.2 mi SE 4.6 mph - N/A   Mostly Cloudy
10:00 AM 61 °F 47 °F 49% 29.95 in 9 mi East 8.9 mph - -   Scattered Clouds
10:00 AM 60.8 °F 46.4 °F 59% 29.95 in 6.2 mi East 9.2 mph - N/A   Mostly Cloudy
10:30 AM 60.8 °F 48.2 °F 63% 29.95 in 6.2 mi ENE 6.9 mph - N/A   Mostly Cloudy
11:00 AM 60.8 °F 48.2 °F 63% 29.95 in 6.2 mi East 6.9 mph - N/A   Mostly Cloudy
11:30 AM 62.6 °F 48.2 °F 59% 29.95 in 6.2 mi East 6.9 mph - N/A   Mostly Cloudy
12:00 PM 64.4 °F 46.4 °F 52% 29.95 in 6.2 mi East 6.9 mph - N/A   Partly Cloudy
12:30 PM 64.4 °F 48.2 °F 56% 29.92 in 6.2 mi East 8.1 mph - N/A   Partly Cloudy
1:00 PM 64 °F 47 °F 44% 29.93 in 19 mi East 8.9 mph - -   Scattered Clouds
1:00 PM 64.4 °F 48.2 °F 56% 29.92 in 6.2 mi East 10.4 mph - N/A   Partly Cloudy
1:30 PM 62.6 °F 46.4 °F 55% 29.92 in 6.2 mi East 8.1 mph - N/A   Partly Cloudy
2:00 PM 62.6 °F 48.2 °F 59% 29.92 in 6.2 mi East 8.1 mph - N/A   Partly Cloudy
2:30 PM 62.6 °F 46.4 °F 55% 29.92 in 6.2 mi East 9.2 mph - N/A   Scattered Clouds
3:00 PM 62.6 °F 48.2 °F 59% 29.92 in 6.2 mi East 5.8 mph - N/A   Mostly Cloudy
3:30 PM 60.8 °F 48.2 °F 63% 29.92 in 6.2 mi East 8.1 mph - N/A   Mostly Cloudy
4:00 PM 61 °F 47 °F 51% 29.93 in 19 mi East 8.9 mph - -   Scattered Clouds
4:00 PM 60.8 °F 48.2 °F 63% 29.92 in 6.2 mi East 9.2 mph - N/A   Scattered Clouds
4:30 PM 60.8 °F 48.2 °F 63% 29.92 in 6.2 mi East 8.1 mph - N/A   Mostly Cloudy
5:00 PM 60.8 °F 48.2 °F 63% 29.92 in 6.2 mi East 10.4 mph - N/A   Scattered Clouds
5:30 PM 59.0 °F 48.2 °F 67% 29.92 in 6.2 mi East 10.4 mph - N/A   Scattered Clouds
6:00 PM 59.0 °F 48.2 °F 67% 29.92 in 6.2 mi East 8.1 mph - N/A Rain Light Rain
6:30 PM 59.0 °F 48.2 °F 67% 29.92 in 6.2 mi East 9.2 mph - N/A Rain Light Rain
7:00 PM 59 °F 47 °F 53% 29.95 in 19 mi East 8.9 mph - -   Mostly Cloudy
7:00 PM 59.0 °F 46.4 °F 63% 29.95 in 6.2 mi East 10.4 mph - N/A   Mostly Cloudy
7:30 PM 59.0 °F 46.4 °F 63% 29.92 in 6.2 mi East 9.2 mph - N/A   Mostly Cloudy
8:00 PM 59.0 °F 46.4 °F 63% 29.92 in 6.2 mi East 11.5 mph - N/A   Scattered Clouds
8:30 PM 59.0 °F 46.4 °F 63% 29.92 in 6.2 mi East 10.4 mph - N/A   Scattered Clouds
9:00 PM 59.0 °F 46.4 °F 63% 29.92 in 6.2 mi East 10.4 mph - N/A   Scattered Clouds
9:30 PM 59.0 °F 46.4 °F 63% 29.92 in 6.2 mi East 9.2 mph - N/A   Scattered Clouds
10:00 PM 58 °F 45 °F 53% 29.95 in 19 mi ENE 8.9 mph - -   Scattered Clouds
10:00 PM 59.0 °F 44.6 °F 59% 29.92 in 6.2 mi ENE 9.2 mph - N/A   Partly Cloudy
10:30 PM 59.0 °F 44.6 °F 59% 29.92 in 6.2 mi ENE 10.4 mph - N/A   Partly Cloudy
11:00 PM 59.0 °F 44.6 °F 59% 29.92 in 6.2 mi East 10.4 mph - N/A   Partly Cloudy
11:30 PM 59.0 °F 44.6 °F 59% 29.92 in 6.2 mi East 10.4 mph - N/A   Partly Cloudy